Voltar ao catálogo

COSMOS 535

AtivoMilitarLEO
NORAD 6270·PAYLOAD·🇷🇺 Russia

Lançado Nov 1, 1972 de Plesetsk Cosmodrome

Loading…

Próximas Passagens (próximas 24 horas)

TLE

AtualizadoSource: Space-Track

Época: Sep 14, 2026, 15:04 UTC

1 06270U 72087H   26257.62803339  .00000007  00000-0  13656-3 0  9996
2 06270  74.0342 131.3790 0054842 244.9095 143.0191 12.59355095476298

Acompanhe COSMOS 535 em tempo real com AllMySat

Download on the App Store